Weather History for KDSM - March, 2013

Change the Weather History Date:

Tuesday, March 12, 2013

  Actual Average Record
Temperature  
Mean Temperature 28 °F 38 °F  
Max Temperature 35 °F 47 °F 77 °F (1916)
Min Temperature 20 °F 28 °F -11 °F (1948)
Degree Days  
Heating Degree Days 37 27  
Month to date heating degree days 412 357  
Since 1 July heating degree days 4769 5188  
Cooling Degree Days 0 0  
Month to date cooling degree days 0 0  
Year to date cooling degree days 0 0  
Moisture  
Dew Point 20 °F    
Average Humidity 73    
Maximum Humidity 84    
Minimum Humidity 61    
Precipitation  
Precipitation T in 0.06 in 0.95 in (1986)
Month to date precipitation 1.16 0.77  
Year to date precipitation 4.01 3.05  
Snow  
Snow T in 0.20 in 4.40 in (1951)
Month to date snowfall 4.5 2.4  
Since 1 July snowfall 43.2 30.7  
Snow Depth 2.00 in    
Sea Level Pressure  
Sea Level Pressure 30.12 in    
Wind  
Wind Speed 15 mph (WNW)    
Max Wind Speed 38 mph    
Max Gust Speed 46 mph    
Visibility 9 miles    
Events Snow    
T = Trace of Precipitation, MM = Missing Value Source: NWS Daily Summary

Daily Weather History Graph

Daily Weather History Graph

Search for Another Location

Airport or City:

Trip Planner

Search our weather history database for the weather conditions in past years. The results will help you decide how hot, cold, wet, or windy it might be!

Date:

Astronomy

Mar. 12, 2013 Rise Set
Actual Time 7:30 AM CDT 7:18 PM CDT
Civil Twilight 7:03 AM CDT 7:45 PM CDT
Nautical Twilight 6:31 AM CDT 8:18 PM CDT
Astronomical Twilight 5:58 AM CDT 8:50 PM CDT
Moon 7:36 AM CDT (3/12) 8:35 PM CDT (3/12)
Length of Visible Light 12h 42m
Length of Day
11h 47m
New Moon, 1% of the Moon is Illuminated
Mar 12
New Moon
Mar 19
First Quarter
Mar 27
Full
Apr 2
Last Quarter
Apr 10
New

Hourly Weather History & Observations

Time (CDT) Temp. Windchill Dew Point Humidity Pressure Visibility Wind Dir Wind Speed Gust Speed Precip Events Conditions
12:54 AM 23.0 °F - 18.0 °F 81% 29.99 in 10.0 mi Calm Calm - N/A   Partly Cloudy
1:54 AM 23.0 °F 17.0 °F 17.1 °F 78% 30.01 in 10.0 mi West 4.6 mph - N/A   Partly Cloudy
2:54 AM 21.9 °F 15.7 °F 15.1 °F 75% 30.02 in 10.0 mi West 4.6 mph - N/A   Clear
3:54 AM 23.0 °F 12.4 °F 16.0 °F 74% 30.02 in 10.0 mi NW 10.4 mph - N/A   Clear
4:54 AM 21.9 °F 17.2 °F 16.0 °F 78% 30.01 in 10.0 mi West 3.5 mph - N/A   Clear
5:54 AM 21.9 °F 13.4 °F 17.1 °F 82% 30.03 in 10.0 mi West 6.9 mph - N/A   Partly Cloudy
6:54 AM 21.0 °F 11.4 °F 16.0 °F 81% 30.04 in 10.0 mi WSW 8.1 mph - N/A   Partly Cloudy
7:54 AM 23.0 °F 17.0 °F 18.0 °F 81% 30.04 in 10.0 mi SSW 4.6 mph - N/A   Overcast
8:54 AM 27.0 °F 17.3 °F 19.9 °F 75% 30.05 in 10.0 mi West 10.4 mph - 0.00 in Snow Light Snow
9:54 AM 30.0 °F 17.9 °F 21.9 °F 72% 30.06 in 4.0 mi WNW 18.4 mph - 0.00 in Snow Light Snow
10:54 AM 33.1 °F 21.9 °F 24.1 °F 70% 30.08 in 9.0 mi WNW 18.4 mph - 0.00 in   Partly Cloudy
11:54 AM 33.1 °F 19.6 °F 23.0 °F 66% 30.09 in 10.0 mi WNW 27.6 mph 39.1 mph N/A   Overcast
12:10 PM 33.1 °F 19.8 °F 24.1 °F 70% 30.06 in 10.0 mi WNW 26.5 mph 34.5 mph N/A   Overcast
12:40 PM 33.1 °F 19.6 °F 24.1 °F 70% 30.07 in 10.0 mi WNW 27.6 mph 35.7 mph N/A   Overcast
12:54 PM 34.0 °F 21.3 °F 23.0 °F 64% 30.11 in 10.0 mi WNW 25.3 mph 39.1 mph N/A   Overcast
1:54 PM 34.0 °F 19.9 °F 21.9 °F 61% 30.12 in 10.0 mi WNW 32.2 mph 46.0 mph N/A   Overcast
2:54 PM 33.1 °F 20.9 °F 23.0 °F 66% 30.12 in 10.0 mi WNW 21.9 mph 35.7 mph N/A   Overcast
3:41 PM 30.9 °F 18.1 °F 24.1 °F 76% 30.10 in 1.8 mi NNW 21.9 mph 32.2 mph 0.00 in Snow Light Snow
3:54 PM 30.0 °F 17.9 °F 24.1 °F 79% 30.15 in 1.5 mi NW 18.4 mph 27.6 mph 0.00 in Snow Light Snow
4:21 PM 28.9 °F 15.8 °F 21.9 °F 75% 30.13 in 2.0 mi NW 20.7 mph 27.6 mph 0.00 in Snow Light Snow
4:32 PM 30.0 °F 17.5 °F 21.0 °F 69% 30.13 in 10.0 mi NW 19.6 mph 31.1 mph 0.00 in   Mostly Cloudy
4:43 PM 30.0 °F 17.5 °F 21.0 °F 69% 30.13 in 10.0 mi NW 19.6 mph 24.2 mph 0.00 in   Mostly Cloudy
4:54 PM 30.0 °F 16.9 °F 19.0 °F 64% 30.17 in 10.0 mi NW 21.9 mph 29.9 mph 0.00 in   Mostly Cloudy
5:54 PM 28.9 °F 16.5 °F 19.0 °F 67% 30.19 in 9.0 mi NW 18.4 mph 28.8 mph 0.00 in   Mostly Cloudy
6:54 PM 28.9 °F 16.1 °F 18.0 °F 64% 30.20 in 8.0 mi NW 19.6 mph 27.6 mph 0.00 in Snow Light Snow
7:54 PM 28.0 °F 14.9 °F 18.0 °F 66% 30.23 in 10.0 mi NW 19.6 mph - 0.00 in   Mostly Cloudy
8:54 PM 27.0 °F 13.5 °F 17.1 °F 66% 30.25 in 10.0 mi NW 19.6 mph 25.3 mph N/A   Mostly Cloudy
9:54 PM 26.1 °F 13.6 °F 17.1 °F 69% 30.26 in 10.0 mi WNW 16.1 mph - N/A   Scattered Clouds
10:28 PM 26.1 °F 14.0 °F 17.1 °F 69% 30.23 in 10.0 mi WNW 15.0 mph - N/A   Mostly Cloudy
10:41 PM 25.0 °F 12.6 °F 17.1 °F 72% 30.23 in 10.0 mi WNW 15.0 mph - N/A   Scattered Clouds
10:54 PM 25.0 °F 13.6 °F 17.1 °F 72% 30.27 in 10.0 mi NW 12.7 mph - N/A   Clear
11:54 PM 25.0 °F 12.6 °F 17.1 °F 72% 30.29 in 10.0 mi NW 15.0 mph - N/A   Partly Cloudy